Wind_Speed
18 18 19 19 20 21 21 20 19 17 16 14 15 14 14 14 14 14 15 15 15 16 16 16 16 17 17 17 17 18 18 18 18 18 19 19 20 21 22 23 24 25 26 27
18 19 19 20 20 22 22 21 20 18 17 17 18 17 17 17 16 16 16 16 17 17 17 17 18 18 19 19 20 20 19 20 20 21 21 22 23 24 25 26 28 29 29 30
18 19 20 20 19 20 20 20 20 19 18 18 19 19 20 20 19 18 18 18 18 18 18 19 19 20 20 21 22 21 21 22 22 23 24 25 26 27 28 30 31 31 32 33
17 18 20 19 20 21 21 21 21 20 20 19 20 20 21 22 22 21 20 20 20 20 20 21 21 22 23 22 23 23 23 24 25 26 27 28 29 30 31 32 33 34 35 36
17 18 19 19 20 21 22 21 21 21 21 22 22 22 22 22 23 23 23 24 24 24 23 23 23 24 25 24 24 25 26 27 27 28 29 30 32 33 34 35 35 36 37 38
18 19 18 17 19 20 21 21 21 22 22 22 22 23 23 23 24 26 27 27 27 27 25 25 26 26 25 25 26 27 28 29 30 30 32 33 34 35 36 37 38 38 39 40
18 18 18 18 20 21 22 22 22 22 23 22 23 23 23 23 25 28 29 30 29 28 27 28 28 27 27 28 28 29 30 30 32 33 34 36 37 38 39 40 40 41 41 42
19 18 18 19 20 21 22 22 22 23 23 24 23 24 24 24 26 28 28 29 29 30 29 30 30 30 29 30 30 31 32 32 34 35 37 38 40 41 41 42 43 44 44 45
19 19 19 19 20 21 21 21 22 23 23 24 24 24 24 25 26 27 28 29 29 29 29 30 31 31 32 32 32 33 34 36 37 38 40 42 43 43 44 45 46 46 47 47
20 20 20 20 20 19 19 21 22 23 23 24 24 24 24 24 25 25 26 27 27 28 30 31 32 33 33 34 34 35 36 38 40 41 43 45 45 46 48 48 49 50 49 50
21 21 21 21 21 21 20 20 21 22 23 22 23 24 24 24 25 26 27 27 27 28 29 31 32 34 36 36 36 38 40 41 43 44 45 47 48 49 50 51 52 52 52 53
22 22 23 22 22 21 21 21 21 21 22 22 22 23 24 24 24 26 27 28 28 29 31 32 33 34 36 38 39 41 42 44 45 47 48 49 50 51 52 53 54 55 56 56
23 23 23 23 23 22 22 22 22 22 23 23 23 24 24 25 25 26 27 29 30 32 33 34 36 37 39 40 41 43 44 45 47 49 50 51 52 54 55 55 57 58 59 60
24 24 24 23 24 24 23 23 24 24 25 25 25 25 26 26 28 29 30 31 33 34 36 37 38 39 41 42 44 45 46 48 49 51 52 54 55 57 58 58 59 60 61 62
24 25 25 25 26 26 25 25 26 25 25 26 26 27 27 28 30 31 32 34 35 36 38 39 40 42 43 45 46 47 49 50 52 54 55 57 58 59 61 62 62 63 63 63
23 24 24 25 26 26 26 26 26 26 27 27 28 29 30 31 32 33 35 36 37 39 40 41 43 44 46 48 49 51 52 54 55 57 58 59 60 61 62 63 64 64 64 64
24 25 25 26 26 26 26 27 28 28 28 28 29 30 31 33 34 36 37 39 40 41 43 44 46 47 49 50 52 53 55 56 57 58 59 60 61 62 63 64 64 64 64 64
23 24 25 25 25 26 27 27 27 28 30 30 31 33 34 36 37 39 40 41 43 44 46 47 49 50 51 52 54 55 56 57 57 58 59 60 60 61 61 61 61 61 60 59
26 25 25 24 24 25 25 26 27 29 30 32 34 36 38 40 41 42 43 45 46 47 48 49 50 51 52 53 54 55 56 56 57 57 57 57 57 57 57 57 56 55 54 52
26 27 27 27 26 27 28 29 30 33 35 37 39 40 41 43 44 45 46 47 47 48 49 50 51 52 53 53 54 54 54 54 54 54 54 53 53 52 50 49 48 47 47 45
28 28 29 30 31 31 33 35 37 38 40 41 42 43 44 45 46 47 47 48 48 49 50 51 51 51 51 51 51 51 52 51 50 50 49 47 46 45 44 43 43 41 40 39
30 31 32 33 34 36 38 40 41 42 43 44 44 45 46 46 47 47 48 48 48 48 49 49 49 49 49 48 48 48 47 46 46 45 44 42 41 41 40 39 38 37 36 35
33 35 37 39 39 40 41 42 43 43 44 44 45 45 45 46 46 46 46 46 46 47 47 46 46 46 45 44 44 44 43 42 42 40 39 39 38 38 37 36 35 34 33 30
37 39 40 41 42 42 43 43 43 44 44 44 44 44 44 44 44 44 44 44 44 44 44 43 43 42 41 41 41 40 39 39 38 37 37 37 36 35 34 32 31 29 26 23
39 40 41 42 42 43 43 43 43 43 43 43 43 43 43 43 43 42 42 41 41 41 41 40 40 39 38 37 37 36 35 35 34 33 33 32 31 30 28 27 25 22 19 16
41 41 41 42 42 42 42 42 42 42 42 41 41 41 41 41 40 40 40 39 39 38 38 37 35 35 35 35 34 33 32 32 31 29 28 27 26 24 22 19 17 15 12 9
40 40 40 41 41 41 41 41 41 41 40 40 39 39 38 38 38 37 36 36 36 35 34 33 33 33 33 32 31 30 28 27 25 23 22 20 19 17 15 13 11 8 5 2
Wind_Direction
264 263 263 269 270 273 277 278 275 271 271 270 267 266 268 266 263 261 260 258 256 253 252 253 252 252 252 252 254 255 257 260 264 268 272 276 279 282 285 288 291 293 295 298
263 265 267 270 273 274 274 275 273 270 269 271 268 268 268 268 266 265 266 261 256 255 254 254 255 254 255 256 257 258 262 265 269 272 276 279 281 283 285 287 290 292 294 297
264 265 271 273 277 274 270 271 271 272 273 273 270 268 266 264 264 262 264 262 258 257 258 256 255 255 256 258 261 262 266 270 273 275 277 280 282 284 285 287 289 292 294 296
270 272 273 278 275 274 271 269 268 271 273 269 269 267 267 263 260 259 261 261 258 257 260 260 259 260 259 261 264 267 270 273 275 277 279 281 283 284 285 287 289 292 294 296
276 277 280 277 274 272 270 268 268 269 270 266 267 267 266 265 260 259 260 261 261 261 262 262 261 262 262 263 267 270 272 274 276 278 280 281 283 284 286 288 290 293 294 295
274 277 279 277 274 272 272 270 271 269 268 266 266 264 265 264 260 260 260 262 263 263 263 263 262 263 264 265 268 270 273 275 277 279 281 283 285 286 288 289 290 292 293 294
273 277 279 277 274 272 272 273 270 269 267 267 267 266 263 263 261 260 261 261 261 263 262 260 261 263 265 267 270 271 273 276 279 280 282 283 285 286 288 289 290 292 293 294
271 275 277 275 273 273 274 273 270 268 267 269 268 267 265 264 261 259 261 259 261 261 261 262 262 263 265 268 270 273 276 278 280 282 283 285 286 287 288 289 290 292 293 293
271 274 276 276 276 276 274 272 270 269 269 269 269 267 266 264 261 259 259 260 261 262 263 264 264 265 265 268 272 274 276 277 281 283 284 285 286 287 288 289 290 290 291 292
271 274 277 278 275 274 274 273 271 272 271 270 268 268 268 266 262 259 261 263 263 263 263 265 268 268 269 273 274 276 278 280 282 283 284 284 285 286 288 289 289 291 291 292
272 274 275 275 273 272 272 272 271 272 270 271 270 269 269 267 264 263 263 264 264 265 267 269 270 271 272 275 276 278 279 280 281 282 284 285 285 286 288 289 290 291 291 291
272 273 275 274 273 272 270 270 270 271 269 269 269 268 269 269 268 268 268 269 270 271 273 275 277 278 279 279 280 281 282 282 283 284 285 286 286 287 287 288 289 290 290 290
270 271 272 273 273 271 270 270 270 271 270 268 269 271 272 272 272 273 274 274 275 276 277 278 279 280 281 282 282 283 284 284 284 285 286 286 286 287 287 288 288 289 289 289
269 270 270 270 270 270 271 271 271 272 271 271 271 272 274 275 276 277 278 278 279 280 280 281 281 282 282 283 284 284 285 285 286 286 286 286 287 287 287 287 287 287 288 288
268 269 269 269 270 269 268 268 269 271 272 273 274 275 277 279 280 281 282 283 283 284 284 284 285 285 285 286 286 286 286 286 286 287 287 287 287 287 287 287 287 287 287 287
266 266 266 266 269 268 267 268 270 271 273 275 277 280 281 282 283 284 285 285 286 286 287 287 287 287 287 287 287 288 288 288 288 288 288 288 288 288 288 287 287 287 287 287
267 267 268 270 272 270 269 270 271 273 276 279 281 283 284 286 287 287 288 288 289 289 289 289 289 289 289 289 289 289 289 289 289 289 289 289 289 288 288 288 288 288 288 288
272 271 273 274 275 273 272 273 275 277 279 282 284 286 288 289 289 290 290 290 291 291 291 291 291 291 290 290 290 290 290 290 290 290 290 290 290 290 290 290 290 290 290 290
278 278 276 277 277 275 272 273 276 279 282 286 288 289 290 291 291 291 292 292 292 293 293 293 293 293 292 292 292 292 292 292 292 292 292 292 292 292 292 292 292 292 292 292
279 280 279 277 274 274 275 277 280 283 287 289 291 292 292 292 293 294 294 294 294 294 294 294 294 294 294 294 294 294 294 294 294 294 294 294 294 294 294 294 295 295 295 295
280 278 277 275 274 276 279 282 285 287 289 291 292 293 294 294 295 295 296 296 296 296 296 296 296 296 296 295 295 295 296 296 296 296 297 297 297 297 297 297 298 298 298 297
277 276 277 277 278 281 284 286 288 290 291 292 293 294 295 295 296 296 297 297 297 297 298 298 298 298 297 297 297 297 298 297 297 298 298 298 298 299 299 299 299 299 300 299
277 278 280 282 284 286 288 289 291 292 293 294 295 296 296 297 298 298 298 298 298 299 299 299 299 299 298 298 299 299 299 299 299 299 299 299 300 301 300 300 300 301 301 300
280 282 283 286 288 291 293 294 295 296 296 297 297 298 298 299 299 299 300 300 300 300 300 300 300 300 299 300 300 300 300 300 300 300 300 301 301 301 301 301 302 303 303 301
286 287 289 291 293 294 295 296 297 297 298 298 298 299 299 300 300 300 301 301 301 301 301 301 301 301 301 302 302 302 302 303 303 302 302 303 303 302 302 303 304 304 303 300
289 291 292 293 294 295 296 296 296 297 297 297 298 299 299 300 300 301 301 302 302 303 303 303 303 303 304 304 303 303 303 304 305 304 305 305 305 307 308 308 307 308 308 303
291 292 293 294 295 296 296 296 297 297 297 298 298 299 299 299 300 300 301 302 303 303 304 304 304 305 305 305 305 305 306 307 309 309 309 311 312 313 314 315 316 320 325 324
Height
5826 5826 5827 5827 5827 5827 5827 5828 5828 5830 5830 5831 5831 5831 5831 5831 5831 5832 5832 5832 5832 5832 5832 5832 5832 5832 5832 5832 5832 5832 5832 5832 5831 5831 5830 5829 5828 5827 5826 5825 5824 5822 5820 5818
5821 5821 5821 5822 5822 5822 5822 5822 5823 5824 5826 5826 5826 5827 5827 5827 5828 5828 5828 5828 5828 5828 5828 5828 5828 5827 5827 5827 5827 5827 5826 5826 5825 5825 5824 5823 5822 5821 5820 5819 5817 5815 5813 5811
5815 5815 5816 5817 5817 5816 5816 5817 5818 5819 5821 5821 5821 5821 5822 5822 5823 5823 5823 5823 5823 5823 5823 5823 5823 5822 5822 5821 5821 5820 5820 5819 5819 5818 5817 5816 5815 5814 5813 5811 5809 5807 5805 5803
5810 5811 5810 5814 5811 5810 5811 5812 5813 5813 5814 5815 5815 5815 5815 5816 5817 5817 5818 5817 5817 5817 5817 5817 5816 5816 5815 5815 5814 5814 5813 5812 5811 5810 5809 5808 5807 5806 5804 5803 5801 5799 5796 5793
5805 5805 5805 5806 5805 5805 5805 5806 5807 5807 5808 5808 5808 5809 5809 5810 5810 5811 5811 5811 5811 5810 5810 5810 5809 5809 5808 5808 5807 5806 5805 5804 5804 5803 5801 5800 5799 5797 5796 5794 5792 5789 5787 5784
5799 5799 5800 5801 5800 5799 5800 5801 5801 5801 5801 5801 5802 5802 5803 5803 5803 5803 5803 5803 5803 5803 5802 5802 5802 5801 5801 5800 5799 5799 5797 5797 5795 5794 5793 5792 5790 5788 5786 5784 5782 5779 5777 5774
5794 5793 5794 5795 5793 5794 5795 5795 5794 5794 5794 5794 5794 5795 5795 5795 5795 5795 5795 5795 5795 5795 5794 5794 5793 5793 5793 5792 5791 5790 5789 5788 5787 5785 5784 5782 5780 5778 5776 5774 5771 5769 5766 5763
5788 5789 5790 5788 5788 5788 5788 5787 5786 5786 5786 5787 5787 5787 5786 5786 5786 5786 5786 5786 5786 5786 5786 5785 5784 5784 5784 5783 5782 5781 5780 5779 5777 5776 5774 5772 5770 5767 5765 5762 5760 5757 5754 5751
5784 5785 5783 5782 5781 5781 5780 5780 5779 5779 5779 5780 5779 5779 5779 5778 5778 5778 5778 5778 5778 5777 5777 5776 5776 5776 5775 5774 5773 5772 5771 5769 5767 5765 5763 5761 5759 5756 5753 5750 5748 5745 5741 5739
5777 5777 5777 5776 5775 5774 5774 5773 5773 5773 5772 5772 5772 5772 5771 5771 5770 5770 5770 5769 5769 5769 5768 5768 5767 5767 5766 5764 5763 5762 5761 5759 5756 5754 5752 5749 5747 5744 5741 5737 5734 5731 5728 5725
5770 5770 5770 5769 5769 5768 5768 5767 5766 5766 5765 5765 5765 5765 5764 5763 5763 5762 5762 5761 5761 5760 5760 5759 5758 5757 5756 5754 5753 5751 5750 5747 5745 5742 5740 5737 5734 5731 5727 5724 5720 5717 5713 5710
5764 5763 5763 5763 5762 5762 5761 5760 5760 5759 5759 5758 5758 5758 5757 5756 5756 5755 5754 5754 5753 5752 5751 5750 5748 5747 5745 5744 5742 5740 5738 5735 5732 5730 5727 5724 5720 5717 5713 5710 5706 5701 5697 5693
5756 5756 5756 5756 5755 5755 5754 5754 5753 5753 5752 5752 5751 5750 5750 5749 5748 5747 5747 5746 5745 5743 5742 5740 5739 5737 5735 5733 5730 5728 5725 5722 5719 5716 5712 5709 5705 5702 5698 5694 5689 5685 5680 5676
5749 5749 5749 5749 5748 5747 5747 5746 5746 5745 5745 5744 5743 5743 5742 5741 5740 5739 5738 5736 5735 5733 5732 5730 5728 5725 5723 5720 5717 5715 5711 5708 5705 5701 5697 5693 5689 5685 5681 5677 5674 5669 5664 5658
5742 5742 5742 5741 5741 5740 5739 5738 5738 5737 5736 5736 5735 5734 5734 5732 5731 5730 5728 5726 5724 5722 5720 5718 5715 5713 5710 5707 5704 5700 5697 5693 5689 5685 5681 5677 5672 5668 5663 5658 5654 5650 5646 5641
5734 5734 5733 5733 5732 5732 5731 5730 5730 5729 5728 5727 5727 5726 5724 5723 5721 5720 5718 5716 5713 5711 5708 5705 5702 5699 5696 5692 5689 5685 5681 5677 5672 5668 5664 5659 5654 5649 5644 5639 5634 5629 5625 5620
5727 5726 5726 5725 5724 5724 5723 5722 5721 5720 5720 5719 5717 5716 5714 5713 5711 5709 5706 5704 5701 5698 5695 5692 5688 5685 5681 5677 5673 5669 5664 5660 5655 5650 5645 5640 5635 5629 5624 5619 5614 5609 5604 5599
5719 5719 5718 5717 5716 5715 5714 5713 5712 5712 5711 5709 5708 5706 5704 5702 5700 5697 5695 5692 5688 5685 5681 5677 5674 5670 5665 5661 5656 5652 5647 5642 5637 5632 5627 5621 5616 5610 5604 5599 5594 5589 5584 5580
5712 5711 5710 5709 5708 5707 5705 5704 5703 5702 5701 5699 5697 5695 5693 5691 5688 5685 5682 5678 5675 5671 5667 5662 5658 5654 5649 5644 5639 5634 5629 5624 5619 5614 5608 5603 5597 5591 5586 5581 5575 5570 5566 5562
5704 5703 5702 5701 5699 5698 5697 5695 5693 5692 5690 5688 5686 5683 5681 5678 5674 5671 5668 5664 5660 5655 5651 5647 5642 5637 5632 5627 5622 5617 5612 5607 5602 5596 5591 5585 5580 5575 5569 5564 5559 5555 5551 5546
5696 5694 5693 5691 5690 5688 5686 5685 5683 5681 5678 5676 5673 5670 5667 5664 5660 5657 5653 5649 5645 5640 5635 5631 5626 5621 5616 5611 5606 5601 5596 5591 5585 5580 5575 5570 5565 5560 5555 5551 5546 5542 5538 5534
5686 5685 5683 5681 5680 5678 5676 5673 5671 5668 5666 5663 5660 5656 5653 5650 5646 5642 5638 5634 5629 5625 5620 5615 5610 5605 5600 5595 5590 5585 5580 5576 5571 5566 5561 5556 5552 5547 5543 5539 5534 5530 5526 5522
5677 5675 5673 5671 5668 5666 5664 5661 5658 5655 5653 5649 5646 5642 5639 5635 5631 5627 5624 5619 5614 5609 5605 5600 5595 5591 5586 5581 5576 5572 5567 5562 5558 5553 5549 5544 5540 5536 5532 5528 5524 5520 5516 5512
5666 5664 5661 5659 5656 5654 5651 5648 5645 5642 5639 5635 5632 5628 5625 5621 5617 5612 5608 5604 5600 5595 5591 5587 5582 5577 5573 5569 5564 5560 5555 5550 5546 5542 5538 5533 5529 5525 5521 5517 5514 5510 5507 5504
5654 5652 5650 5647 5644 5641 5638 5635 5632 5629 5626 5622 5618 5614 5611 5607 5604 5600 5595 5591 5587 5583 5578 5574 5570 5566 5561 5557 5553 5548 5544 5540 5536 5531 5527 5523 5519 5516 5512 5509 5505 5503 5500 5498
5643 5640 5638 5635 5632 5629 5626 5623 5620 5616 5613 5610 5606 5602 5598 5594 5590 5587 5583 5579 5575 5571 5567 5563 5559 5555 5551 5547 5543 5539 5535 5531 5527 5523 5519 5515 5512 5508 5505 5502 5500 5497 5496 5495
5631 5628 5626 5623 5620 5617 5613 5610 5607 5604 5600 5597 5594 5590 5586 5583 5579 5576 5572 5569 5565 5561 5557 5553 5550 5546 5542 5538 5534 5530 5526 5522 5519 5515 5512 5509 5506 5503 5501 5499 5497 5495 5494 5494